Satellite: NOAA-12 Catalog number: 21263 Epoch time: 14002.52880620 Element set: 112 Inclination: 098.6806 deg RA of node: 031.1565 deg Eccentricity: 0.0013599 Arg of perigee: 004.7915 deg Mean anomaly: 150.6782 deg Mean motion: 14.25614628 rev/day Decay rate: 8.0e-07 rev/day^2 Epoch rev: 17695 Checksum: 285
Satellite: MET-3/5 Catalog number: 21655 Epoch time: 14002.20846551 Element set: 870 Inclination: 082.5576 deg RA of node: 113.6973 deg Eccentricity: 0.0012767 Arg of perigee: 356.7444 deg Mean anomaly: 003.3594 deg Mean motion: 13.17054601 rev/day Decay rate: -2.94e-06 rev/day^2 Epoch rev: 7613 Checksum: 294
Satellite: MET-2/21 Catalog number: 22782 Epoch time: 14002.84034947 Element set: 939 Inclination: 082.5513 deg RA of node: 304.4956 deg Eccentricity: 0.0022414 Arg of perigee: 012.6841 deg Mean anomaly: 038.8101 deg Mean motion: 13.83721897 rev/day Decay rate: 1.05e-06 rev/day^2 Epoch rev: 2725 Checksum: 285
Satellite: OKEAN-4 Catalog number: 23317 Epoch time: 14002.16605414 Element set: 418 Inclination: 082.5372 deg RA of node: 223.5035 deg Eccentricity: 0.0019509 Arg of perigee: 289.8403 deg Mean anomaly: 220.3050 deg Mean motion: 14.84944366 rev/day Decay rate: 1.340e-05 rev/day^2 Epoch rev: 3846 Checksum: 271
Satellite: NOAA-14 Catalog number: 23455 Epoch time: 14002.48801646 Element set: 589 Inclination: 098.7899 deg RA of node: 088.7973 deg Eccentricity: 0.0010293 Arg of perigee: 147.3670 deg Mean anomaly: 277.4735 deg Mean motion: 14.13941046 rev/day Decay rate: 4.6e-07 rev/day^2 Epoch rev: 98053 Checksum: 339
Satellite: NOAA-15 Catalog number: 25338 Epoch time: 14002.53037968 Element set: 21 Inclination: 098.7418 deg RA of node: 356.8265 deg Eccentricity: 0.0009609 Arg of perigee: 268.2036 deg Mean anomaly: 200.8593 deg Mean motion: 14.25320733 rev/day Decay rate: 2.10e-06 rev/day^2 Epoch rev: 81324 Checksum: 289
Satellite: RESURS Catalog number: 25394 Epoch time: 14002.10535251 Element set: 555 Inclination: 098.3907 deg RA of node: 333.6812 deg Eccentricity: 0.0002049 Arg of perigee: 061.3500 deg Mean anomaly: 069.0902 deg Mean motion: 14.24358085 rev/day Decay rate: 6.8e-07 rev/day^2 Epoch rev: 80467 Checksum: 274
Satellite: FENGYUN1 Catalog number: 25730 Epoch time: 14002.48865880 Element set: 48 Inclination: 098.8991 deg RA of node: 324.8174 deg Eccentricity: 0.0025768 Arg of perigee: 212.1622 deg Mean anomaly: 286.2553 deg Mean motion: 14.11188687 rev/day Decay rate: 1.519e-05 rev/day^2 Epoch rev: 75414 Checksum: 322
Satellite: OKEAN-0 Catalog number: 25860 Epoch time: 14001.97913785 Element set: 137 Inclination: 098.0204 deg RA of node: 327.1047 deg Eccentricity: 0.0001128 Arg of perigee: 128.5914 deg Mean anomaly: 275.4682 deg Mean motion: 14.74883868 rev/day Decay rate: 8.99e-06 rev/day^2 Epoch rev: 77765 Checksum: 335
Satellite: NOAA-16 Catalog number: 26536 Epoch time: 14002.25208448 Element set: 507 Inclination: 099.0150 deg RA of node: 061.7121 deg Eccentricity: 0.0009592 Arg of perigee: 294.9478 deg Mean anomaly: 106.4421 deg Mean motion: 14.12968199 rev/day Decay rate: 9.6e-07 rev/day^2 Epoch rev: 68468 Checksum: 317
Satellite: NOAA-17 Catalog number: 27453 Epoch time: 14002.47515572 Element set: 413 Inclination: 098.3115 deg RA of node: 010.9589 deg Eccentricity: 0.0010552 Arg of perigee: 303.0209 deg Mean anomaly: 181.4442 deg Mean motion: 14.24668684 rev/day Decay rate: 1.63e-06 rev/day^2 Epoch rev: 59909 Checksum: 294
Satellite: NOAA-18 Catalog number: 28654 Epoch time: 14002.51399000 Element set: 901 Inclination: 099.1286 deg RA of node: 338.8783 deg Eccentricity: 0.0014409 Arg of perigee: 013.1554 deg Mean anomaly: 133.8752 deg Mean motion: 14.11920875 rev/day Decay rate: 2.38e-06 rev/day^2 Epoch rev: 44418 Checksum: 301
Satellite: NOAA-19 Catalog number: 33591 Epoch time: 14002.50298112 Element set: 73 Inclination: 098.9275 deg RA of node: 308.2077 deg Eccentricity: 0.0013394 Arg of perigee: 224.3224 deg Mean anomaly: 263.0031 deg Mean motion: 14.11614868 rev/day Decay rate: 1.62e-06 rev/day^2 Epoch rev: 25261 Checksum: 272
/EX SB KEPS @ AMSAT $ORB14002.M Orbital Elements 14002.MISC
HR AMSAT ORBITAL ELEMENTS FOR MANNED AND MISCELLANEOUS SATELLITES FROM WA5QGD FORT WORTH,TX January 2, 2014 BID: ORB14002.M TO ALL RADIO AMATEURS BT
Satellite: HUBBLE Catalog number: 20580 Epoch time: 14002.54543411 Element set: 408 Inclination: 028.4715 deg RA of node: 045.2473 deg Eccentricity: 0.0003010 Arg of perigee: 322.2027 deg Mean anomaly: 162.3747 deg Mean motion: 15.04448356 rev/day Decay rate: 3.278e-05 rev/day^2 Epoch rev: 9974 Checksum: 262
Satellite: ISS Catalog number: 25544 Epoch time: 14002.91532806 Element set: 381 Inclination: 051.6486 deg RA of node: 198.7442 deg Eccentricity: 0.0004937 Arg of perigee: 345.7231 deg Mean anomaly: 167.8980 deg Mean motion: 15.50115526 rev/day Decay rate: 8.631e-05 rev/day^2 Epoch rev: 86568 Checksum: 315
Satellite: CO-58 Catalog number: 28895 Epoch time: 14002.54960665 Element set: 661 Inclination: 097.8472 deg RA of node: 212.9161 deg Eccentricity: 0.0017920 Arg of perigee: 169.4596 deg Mean anomaly: 190.6985 deg Mean motion: 14.61466623 rev/day Decay rate: 1.087e-05 rev/day^2 Epoch rev: 43605 Checksum: 344
Satellite: FALCON Catalog number: 30776 Epoch time: 14002.20681794 Element set: 771 Inclination: 035.4310 deg RA of node: 058.9110 deg Eccentricity: 0.0002156 Arg of perigee: 220.2893 deg Mean anomaly: 192.9987 deg Mean motion: 15.13000471 rev/day Decay rate: 1.0513e-04 rev/day^2 Epoch rev: 37555 Checksum: 271
Satellite: MAST Catalog number: 31126 Epoch time: 14002.20521100 Element set: 938 Inclination: 097.8982 deg RA of node: 351.9614 deg Eccentricity: 0.0093635 Arg of perigee: 151.4490 deg Mean anomaly: 270.1211 deg Mean motion: 14.54880839 rev/day Decay rate: 6.44e-06 rev/day^2 Epoch rev: 35625 Checksum: 281
Satellite: CAPE1 Catalog number: 31130 Epoch time: 14002.52311828 Element set: 943 Inclination: 097.9181 deg RA of node: 348.7376 deg Eccentricity: 0.0100456 Arg of perigee: 167.3424 deg Mean anomaly: 193.0332 deg Mean motion: 14.53907252 rev/day Decay rate: 8.10e-06 rev/day^2 Epoch rev: 35573 Checksum: 278
Satellite: COMPASS Catalog number: 32787 Epoch time: 14002.12250051 Element set: 820 Inclination: 097.7260 deg RA of node: 060.3496 deg Eccentricity: 0.0014414 Arg of perigee: 014.9733 deg Mean anomaly: 345.1907 deg Mean motion: 14.86555084 rev/day Decay rate: 3.905e-05 rev/day^2 Epoch rev: 30750 Checksum: 275
Satellite: AAUSAT2 Catalog number: 32788 Epoch time: 14002.13118579 Element set: 805 Inclination: 097.7270 deg RA of node: 061.1622 deg Eccentricity: 0.0013951 Arg of perigee: 014.0164 deg Mean anomaly: 346.1436 deg Mean motion: 14.87120115 rev/day Decay rate: 4.772e-05 rev/day^2 Epoch rev: 30755 Checksum: 275
Satellite: DO-64 Catalog number: 32789 Epoch time: 14002.84071409 Element set: 841 Inclination: 097.7438 deg RA of node: 066.9375 deg Eccentricity: 0.0012768 Arg of perigee: 001.3050 deg Mean anomaly: 058.7569 deg Mean motion: 14.90625326 rev/day Decay rate: 1.1405e-04 rev/day^2 Epoch rev: 30784 Checksum: 318
Satellite: CO-66 Catalog number: 32791 Epoch time: 14002.70645957 Element set: 800 Inclination: 097.7258 deg RA of node: 059.9917 deg Eccentricity: 0.0014980 Arg of perigee: 015.5862 deg Mean anomaly: 099.8631 deg Mean motion: 14.85495257 rev/day Decay rate: 3.597e-05 rev/day^2 Epoch rev: 30748 Checksum: 360
Satellite: RS-30 Catalog number: 32953 Epoch time: 14002.83018079 Element set: 523 Inclination: 082.5036 deg RA of node: 304.0345 deg Eccentricity: 0.0018718 Arg of perigee: 154.0050 deg Mean anomaly: 206.1973 deg Mean motion: 12.43041350 rev/day Decay rate: 1.0e-07 rev/day^2 Epoch rev: 25471 Checksum: 243
Satellite: METEOR-M Catalog number: 35865 Epoch time: 14002.72077832 Element set: 131 Inclination: 098.5758 deg RA of node: 054.9578 deg Eccentricity: 0.0001938 Arg of perigee: 200.5924 deg Mean anomaly: 159.5169 deg Mean motion: 14.21903558 rev/day Decay rate: -4.0e-08 rev/day^2 Epoch rev: 22282 Checksum: 305
Satellite: RS-38 Catalog number: 35869 Epoch time: 14002.71854791 Element set: 82 Inclination: 098.5688 deg RA of node: 054.8079 deg Eccentricity: 0.0004164 Arg of perigee: 207.3515 deg Mean anomaly: 152.7438 deg Mean motion: 14.22168960 rev/day Decay rate: 4.4e-07 rev/day^2 Epoch rev: 22285 Checksum: 323
Satellite: JUGNU Catalog number: 37839 Epoch time: 14002.78267926 Element set: 534 Inclination: 019.9609 deg RA of node: 177.3408 deg Eccentricity: 0.0019043 Arg of perigee: 320.7828 deg Mean anomaly: 168.0871 deg Mean motion: 14.12228079 rev/day Decay rate: 4.47e-06 rev/day^2 Epoch rev: 11514 Checksum: 310
Satellite: SRMSAT Catalog number: 37841 Epoch time: 14001.91519750 Element set: 533 Inclination: 019.9705 deg RA of node: 198.5958 deg Eccentricity: 0.0011894 Arg of perigee: 258.7534 deg Mean anomaly: 243.0555 deg Mean motion: 14.10284095 rev/day Decay rate: 3.89e-06 rev/day^2 Epoch rev: 11486 Checksum: 317
Satellite: RAX-2 Catalog number: 37853 Epoch time: 14001.91072088 Element set: 686 Inclination: 101.7069 deg RA of node: 312.8551 deg Eccentricity: 0.0226820 Arg of perigee: 176.6075 deg Mean anomaly: 226.9867 deg Mean motion: 14.86150422 rev/day Decay rate: 4.959e-05 rev/day^2 Epoch rev: 11793 Checksum: 320
Satellite: AUBIESAT Catalog number: 37854 Epoch time: 14002.83786451 Element set: 671 Inclination: 101.7118 deg RA of node: 315.5505 deg Eccentricity: 0.0225788 Arg of perigee: 171.8898 deg Mean anomaly: 248.5898 deg Mean motion: 14.87129249 rev/day Decay rate: 8.583e-05 rev/day^2 Epoch rev: 11810 Checksum: 341
